Probability
59 65 72 74 69 62 55 49 44 36 25 16 11 8 5 4 2 1 0 0 0 0 0 0 0 0 0 0 0 0 0 0 0 0 0 0 0 0 0 0 0 0 0
60 64 70 73 70 62 55 51 46 38 26 16 10 7 5 3 2 1 0 0 0 0 0 0 0 0 0 0 0 0 0 0 0 0 0 0 0 0 0 0 0 0 0
62 64 68 70 68 62 54 49 45 37 27 17 10 7 5 3 2 0 0 0 1 1 1 0 0 0 0 0 0 0 0 0 0 0 0 0 0 0 0 0 0 0 0
61 63 65 67 66 61 53 45 39 32 25 18 10 6 4 2 1 0 0 0 1 1 1 0 0 0 0 0 0 0 0 0 0 0 0 0 0 0 0 0 0 0 0
58 59 62 64 63 59 52 44 34 25 21 17 11 6 3 1 1 0 1 1 1 1 0 0 0 0 0 0 0 0 0 0 0 0 0 0 0 0 0 0 0 0 0
55 55 57 60 58 56 51 43 31 21 16 14 10 5 2 1 0 0 1 2 2 1 0 0 0 0 0 0 0 0 0 0 0 0 0 0 0 0 0 0 0 0 0
52 51 54 56 55 54 51 43 31 21 15 13 9 4 2 1 0 0 1 2 2 1 0 1 1 0 0 0 0 0 0 0 0 0 0 0 0 0 0 0 0 0 0
50 50 51 52 52 51 48 42 32 23 18 14 10 5 2 1 0 0 0 1 1 1 1 2 2 1 1 0 0 0 0 0 0 0 0 0 0 0 0 0 0 0 0
50 48 46 44 44 44 42 38 31 26 22 17 12 7 4 1 0 1 1 1 1 1 1 2 3 2 1 1 1 1 1 0 0 0 0 0 0 0 0 0 0 0 0
48 45 38 35 36 38 38 34 30 26 22 18 14 10 5 2 2 2 3 3 3 2 1 1 2 2 1 1 2 2 1 0 0 0 0 0 0 0 0 0 0 0 0
45 41 35 32 35 37 36 33 29 25 22 19 16 12 6 3 3 5 6 5 4 1 0 1 2 3 2 2 2 2 1 0 1 1 0 0 0 0 0 0 0 1 1
42 39 37 36 37 37 34 30 26 23 22 21 19 13 8 5 5 7 7 6 4 1 1 2 3 3 2 1 1 1 0 0 1 1 0 0 0 0 0 0 1 2 2
38 38 38 38 38 37 33 28 23 22 22 22 19 14 10 8 8 8 7 5 3 1 1 2 2 2 1 1 0 0 0 0 1 1 0 0 0 0 0 0 1 2 2
41 40 38 37 38 37 34 28 23 22 23 22 19 15 11 10 9 9 7 4 3 2 3 3 2 3 2 1 1 1 0 0 0 0 0 0 0 0 0 0 0 1 1
47 47 43 42 43 42 36 30 26 25 25 24 20 16 12 10 10 9 7 5 3 3 3 3 3 3 2 1 0 0 0 0 0 0 0 0 0 0 0 0 0 0 0
53 52 50 49 49 47 39 32 28 29 30 28 23 17 13 11 10 8 7 6 5 4 4 3 2 1 1 0 0 0 0 0 0 0 0 0 0 0 0 0 0 0 0
54 53 53 51 50 46 40 33 31 32 33 30 24 18 14 12 10 9 8 7 5 4 4 2 1 0 0 0 0 0 0 0 0 0 0 0 0 0 0 0 0 0 0
54 53 52 50 48 44 40 35 34 35 32 27 22 18 14 11 9 8 7 6 3 2 2 1 0 0 0 0 0 0 0 0 0 0 0 0 0 0 0 0 0 0 0
56 53 51 50 47 44 41 38 36 34 30 25 21 17 14 11 9 6 5 3 1 0 0 0 0 0 0 0 0 0 0 0 0 0 0 0 0 0 0 0 0 0 0
58 55 51 49 45 42 42 39 35 30 26 23 20 17 14 11 8 5 3 2 1 0 0 0 0 0 0 0 0 0 0 0 0 0 0 0 0 0 0 0 0 0 0
57 55 51 46 40 37 38 35 30 24 21 20 18 14 12 9 6 3 1 1 1 0 0 0 0 0 0 0 0 0 0 0 0 0 0 0 0 0 0 0 0 0 0
53 50 46 41 34 31 31 29 24 19 18 17 15 11 9 6 3 1 0 0 0 0 0 0 1 1 1 0 0 0 0 0 0 0 0 0 0 0 0 0 0 0 0
47 44 41 36 30 27 26 23 19 17 16 16 13 9 6 4 2 0 0 0 0 0 0 0 1 2 1 0 0 0 0 0 0 0 0 0 0 0 0 0 0 0 0
41 39 35 30 26 24 22 19 17 16 16 15 11 6 3 2 0 0 0 0 0 0 0 0 1 1 1 0 0 0 0 0 0 0 0 0 0 0 0 0 0 0 0
35 32 29 26 24 22 18 16 16 16 16 13 8 3 1 0 0 0 0 0 0 0 0 0 0 0 0 0 0 0 0 0 0 0 0 0 0 0 0 0 0 0 0
28 27 25 24 24 21 16 15 16 16 15 12 6 1 0 0 0 0 0 0 0 0 0 0 0 0 0 0 0 0 0 0 0 0 0 0 0 0 0 0 0 0 0
Wind_Speed
9 9 9 10 9 8 7 7 7 6 5 3 2 2 2 2 2 2 3 3 3 3 2 2 2 2 2 2 3 2 1 1 1 1 1 2 2 2 3 3 4 5 6
8 9 8 8 9 8 7 7 7 6 5 3 3 2 2 2 2 2 2 3 3 2 3 2 2 2 2 2 2 2 2 1 1 2 1 2 4 3 2 2 3 4 4
13 11 10 8 9 8 8 8 6 6 5 4 2 2 1 1 1 2 2 3 3 3 3 3 3 2 2 3 3 3 3 2 1 2 3 2 3 2 3 2 2 2 3
11 11 10 9 10 9 7 6 5 4 4 4 4 4 3 2 3 2 2 2 3 3 3 3 3 3 2 3 3 3 3 3 2 1 1 2 3 2 1 3 2 1 3
12 12 11 10 9 8 7 6 6 4 4 4 4 4 3 2 1 1 2 2 2 3 3 3 3 3 2 3 3 2 3 3 3 2 1 1 0 2 2 2 2 2 2
12 10 9 8 7 7 7 6 6 4 4 4 4 4 4 3 2 2 2 2 2 2 3 3 3 3 3 3 3 3 3 3 3 2 2 2 2 2 2 3 2 2 3
12 11 10 10 9 9 8 6 6 5 4 4 4 4 4 4 3 3 3 3 2 2 3 3 2 2 3 3 3 3 2 2 3 3 2 2 2 2 2 2 2 2 2
10 11 11 11 10 10 8 7 7 5 4 4 3 3 3 2 1 2 3 3 2 2 3 2 2 2 2 3 2 2 2 2 2 3 2 2 2 2 2 3 2 1 2
10 10 9 9 9 9 8 8 7 5 4 4 3 2 2 1 1 1 1 1 2 1 1 2 2 2 2 2 2 1 2 1 2 2 2 2 2 1 2 2 3 3 2
10 9 9 8 8 8 7 7 7 6 5 4 3 2 2 2 1 1 1 1 1 1 2 1 1 1 1 2 2 1 1 2 2 1 1 1 1 1 1 1 1 2 3
12 11 9 8 8 8 8 7 6 5 4 4 3 2 2 2 2 2 2 2 2 2 2 1 1 1 1 0 1 1 1 2 1 1 1 1 1 0 1 1 0 0 2
10 10 10 9 8 8 8 7 7 6 5 4 4 3 3 3 3 3 2 2 2 2 2 2 1 1 1 1 1 0 0 1 1 1 0 1 0 0 1 1 0 0 1
9 8 8 8 8 8 7 7 7 6 5 5 4 4 3 4 3 3 3 3 2 2 2 2 1 1 1 1 0 0 1 1 0 0 0 0 1 1 1 1 1 0 0
10 10 8 7 8 7 7 7 6 6 6 5 5 4 4 4 3 3 3 3 3 3 3 2 2 2 2 2 2 2 2 2 2 2 2 1 1 1 1 1 1 1 1
10 10 9 8 7 7 7 7 6 6 6 6 5 4 4 4 3 3 3 3 3 3 3 3 3 3 3 3 2 2 2 3 3 3 4 5 6 7 5 3 2 2 1
10 9 9 9 8 8 7 7 7 6 6 7 6 5 4 4 3 3 3 4 4 4 4 4 5 5 4 5 5 4 4 4 4 4 4 5 7 9 9 10 8 6 3
10 10 9 8 8 8 8 8 7 6 6 6 6 5 5 4 3 4 4 4 4 4 5 5 5 5 6 8 8 9 6 5 4 4 3 4 5 5 4 7 9 9 10
10 9 8 7 6 6 7 8 8 7 7 6 6 5 5 5 4 5 5 4 4 4 5 5 5 5 7 9 9 9 7 6 5 5 5 4 4 4 4 5 6 5 5
9 8 8 8 7 7 8 9 8 8 7 6 6 6 6 6 6 6 5 4 5 5 5 4 5 6 6 8 8 7 5 6 6 5 5 4 4 5 5 5 5 4 4
7 8 8 8 8 7 8 10 8 7 6 6 6 6 6 7 7 6 6 5 5 5 5 6 5 5 5 7 8 7 4 5 4 4 5 7 5 6 5 4 4 4 2
8 8 9 8 7 7 9 9 8 6 6 6 7 7 7 7 7 6 6 6 6 6 6 6 5 5 6 6 8 7 4 4 4 3 3 3 7 7 7 5 3 2 1
9 9 9 8 6 7 9 9 7 6 7 7 7 7 6 6 6 6 6 6 6 6 5 5 5 4 5 6 6 8 6 4 4 3 2 3 7 7 7 5 5 6 4
8 7 9 8 6 6 7 9 7 7 8 8 8 6 6 6 5 6 6 5 5 5 4 4 4 3 3 4 8 8 7 6 4 2 4 5 7 7 6 8 8 6 3
7 7 8 8 6 5 6 7 7 8 9 9 7 7 7 6 6 5 4 4 4 4 4 3 3 2 2 3 3 3 4 5 5 3 4 6 8 6 6 6 5 4 3
5 6 7 7 7 6 6 6 7 8 9 8 7 7 6 6 6 6 5 4 3 3 4 3 3 3 2 1 1 2 2 2 2 3 3 4 4 5 5 4 4 4 4
6 6 6 6 6 6 7 6 7 8 10 8 7 5 5 5 5 6 6 9 6 7 7 6 5 2 3 3 5 6 6 6 6 5 4 4 4 3 3 3 3 4 4
Wind_Direction
168 159 160 160 156 155 158 163 161 167 158 152 151 149 163 175 178 186 197 190 185 170 162 170 175 174 173 189 176 155 160 194 145 79 354 326 283 237 221 208 194 199 204
157 162 161 160 163 164 165 164 167 169 171 170 167 165 159 175 179 186 186 190 186 179 180 173 182 189 175 182 182 162 156 209 156 139 103 345 336 315 249 218 203 203 199
169 170 171 169 162 167 173 170 172 171 171 165 139 121 102 92 145 191 201 201 190 188 190 189 191 200 185 193 200 183 169 193 231 158 150 157 230 292 316 276 222 204 195
172 174 172 170 172 175 167 156 162 165 164 159 156 157 166 186 206 198 202 203 197 199 199 197 202 199 188 196 209 189 178 170 204 227 193 182 171 171 295 320 298 243 219
176 176 173 170 167 160 155 150 153 159 157 160 165 165 178 200 204 186 191 205 215 213 209 203 200 195 192 198 205 188 177 172 176 186 193 179 154 168 169 266 301 314 266
174 171 162 150 148 148 147 146 148 154 160 166 168 175 183 193 190 194 194 210 222 224 225 213 201 197 195 199 204 198 189 184 177 178 177 174 179 200 184 218 252 267 277
168 163 157 157 156 154 153 153 154 162 170 168 174 185 191 197 199 198 199 205 214 224 232 229 208 201 200 199 194 187 193 188 186 190 193 193 199 187 181 192 232 252 277
165 166 165 163 161 160 159 159 162 166 173 172 173 178 180 180 194 200 195 201 210 222 223 219 209 203 196 199 186 186 200 183 194 206 198 199 216 195 188 187 184 247 298
161 164 163 159 159 161 163 163 161 159 167 168 157 147 150 159 179 181 173 188 208 202 199 201 195 199 190 187 179 182 201 181 199 215 209 211 236 224 212 198 180 176 227
154 158 159 162 159 156 154 152 154 159 160 161 162 152 148 154 159 131 114 129 148 125 117 124 143 174 184 186 172 177 200 191 213 205 203 239 267 275 270 237 202 178 179
162 163 159 161 151 146 150 151 152 148 149 152 146 134 128 118 107 103 98 96 85 94 99 102 103 110 109 133 140 207 214 206 221 235 212 247 259 299 328 345 10 120 155
162 159 153 150 148 155 158 153 154 154 158 152 137 133 122 108 100 93 86 86 87 91 96 83 80 87 77 83 109 210 224 189 220 250 188 282 284 40 345 0 20 25 158
153 149 146 147 154 158 157 154 156 157 154 144 132 124 113 106 104 97 88 83 83 76 73 80 84 77 62 55 41 77 82 83 74 75 111 285 60 22 359 18 17 351 66
156 152 148 153 156 157 155 152 155 152 147 141 133 128 127 126 119 106 94 84 81 73 64 64 60 60 61 60 63 75 74 70 61 58 59 54 82 77 51 45 19 44 60
156 156 155 155 150 145 147 148 148 150 146 141 136 137 136 130 121 113 105 94 81 77 69 62 52 48 56 59 73 83 87 80 64 54 57 62 72 71 68 68 48 49 64
166 160 155 153 154 154 153 145 147 151 145 143 141 136 130 122 118 114 105 95 82 74 68 61 59 52 46 52 69 82 77 82 78 71 61 61 58 65 67 68 67 70 80
163 161 162 161 162 160 154 148 148 146 144 145 141 137 139 131 127 117 100 91 83 79 73 62 63 62 50 55 65 72 78 75 71 71 63 63 59 60 62 63 61 58 60
161 161 159 152 148 143 140 139 138 139 140 138 133 135 133 125 116 106 98 91 87 83 78 67 64 65 55 61 71 76 76 72 62 58 61 67 52 55 70 70 65 55 44
154 153 150 143 135 134 138 132 132 133 133 132 133 135 132 125 116 106 99 93 90 82 74 67 64 64 52 60 73 77 79 75 62 54 56 60 52 48 65 74 70 53 32
125 128 128 123 124 128 127 124 125 124 127 129 126 124 122 119 117 113 105 96 94 91 85 70 59 65 58 57 71 75 87 83 68 52 47 51 52 45 55 74 78 67 22
115 118 119 122 128 126 122 121 122 124 123 115 108 106 111 116 118 115 111 110 104 95 86 80 60 52 49 56 66 70 82 93 84 64 42 33 49 55 56 68 70 76 69
108 113 114 112 116 123 126 124 126 125 115 109 105 105 108 110 112 113 109 106 106 100 93 85 67 43 35 49 62 68 73 83 90 76 48 41 52 54 54 58 56 58 64
108 112 115 113 109 112 123 128 130 125 118 111 108 104 95 87 95 106 111 109 106 105 101 96 86 54 30 41 56 62 65 68 74 72 73 63 56 49 44 42 47 51 55
111 115 118 119 117 114 118 126 128 126 122 118 115 109 102 93 81 81 92 104 107 109 108 105 103 83 47 33 34 39 50 57 64 61 54 52 51 50 42 34 34 39 54
107 111 119 123 125 123 122 127 129 127 123 120 116 110 106 106 92 77 66 84 85 130 137 137 133 126 106 340 68 87 65 67 78 73 51 45 41 40 35 31 27 32 42
114 113 114 120 127 129 129 135 137 135 132 128 127 124 119 113 111 108 85 57 73 86 99 112 121 103 114 110 93 81 77 78 85 79 67 58 54 54 52 47 32 32 41